User: anonymous   Login
Location: Cointrin
(46.2167°N, 6.1167°E)
Time: 07:02:19
(UTC+00:00)
Language:

AO-91 - Orbit

View from above orbital plane
View from above orbital plane
View from above satellite
View from above satellite

Ground track
Ground track

The orbit data is extracted from the following two-line orbital elements,

1 43017U 17073E   23340.19195610  .00007216  00000-0  48184-3 0  9991
2 43017  97.6030 217.8128 0222214 219.6433 138.8359 14.89279522326751
Epoch (UTC): 06 December 2023 04:36:25
Eccentricity: 0.0222214
inclination: 97.6030°
perigee height: 445 km
apogee height: 755 km
right ascension of ascending node: 217.8128°
argument of perigee: 219.6433°
revolutions per day: 14.89279522
mean anomaly at epoch: 138.8359°
orbit number at epoch: 32675

The dashed part of the orbit path shows where the satellite is in the earth's shadow,  

DLR